Home > Weather > Chengdu > Past weeks

Flag for China Past Weather in Chengdu, Sichuan, China — Yesterday and Last 2 Weeks

Now
82 °F

Sprinkles. Scattered clouds.


Feels Like: 91 °F
Forecast: 75 / 85 °F
Wind: 6 mph from Northeast

Location: Chengdu Airport

Current Time: Jul 24, 2016 at 1:08:56 PM

Latest Report: Jul 24, 2016 at 12:00 PM


Visibility: N/A

Pressure: 29.68 "Hg

Humidity: 84%

Dew Point: 77 °F

Location of ChengduLocation

Past Weather in Chengdu — Graph

°F

Chengdu Temperature Yesterday

Maximum temperature yesterday: 88 °F (at 6:00 PM)
Minimum temperature yesterday: 75 °F (at 4:00 AM)
Average temperature yesterday: 80 °F

High & Low Weather Summary for the Past Weeks

 TemperatureHumidityPressure
High97 °F (Jul 20, 3:00 PM)100% (Jul 9, 12:00 PM)29.80 "Hg (Jul 9, 12:00 PM)
Low70 °F (Jul 15, 3:00 AM)38% (Jul 15, 5:00 PM)29.45 "Hg (Jul 18, 6:00 PM)
Average82 °F81%29.60 "Hg
* Reported Jul 9 12:00 PM — Jul 24 12:00 PM, Chengdu, Weather by CustomWeather, © 2016

Note: Actual official high and low records may vary slightly from our data, if they occured in-between our weather recording intervals... More about our weather records

Advertising

Chengdu Weather History for the Previous 24 Hours

Scroll right to see more
 ConditionsComfort  
Time TempWeatherWind HumidityBarometerVisibility
12:00 PM
Sun, Jul 24
82 °FSprinkles. Scattered clouds.6 mph84%29.68 "HgN/A
11:00 AM81 °FSprinkles. Scattered clouds.6 mph94%29.68 "Hg4 mi
10:00 AM82 °FFog.1 mph84%29.65 "Hg3 mi
9:00 AM81 °FFog.No wind100%29.65 "Hg3 mi
8:00 AM81 °FFog.1 mph100%29.62 "Hg2 mi
7:00 AM79 °FFog.1 mph100%29.62 "Hg2 mi
6:00 AM79 °FFog.No wind100%29.62 "Hg3 mi
5:00 AM77 °FFog.1 mph100%29.62 "Hg3 mi
4:00 AM77 °FPassing clouds.No wind100%29.59 "Hg4 mi
3:00 AM79 °FPassing clouds.1 mph100%29.59 "Hg4 mi
2:00 AM79 °FPassing clouds.1 mph100%29.62 "Hg4 mi
1:00 AM81 °FPassing clouds.1 mph100%29.62 "Hg4 mi
12:00 AM81 °FPassing clouds.No wind100%29.65 "Hg4 mi
11:00 PM
Sat, Jul 23
81 °FPassing clouds.No wind94%29.65 "Hg4 mi
10:00 PM81 °FPassing clouds.1 mph94%29.62 "Hg5 mi
9:00 PM82 °FPassing clouds.1 mph84%29.62 "HgN/A
8:00 PM82 °FScattered clouds.No wind79%29.59 "Hg5 mi
7:00 PM86 °FScattered clouds.No wind70%29.59 "HgN/A
6:00 PM88 °FScattered clouds.1 mph66%29.59 "HgN/A
5:00 PM86 °FPassing clouds.No wind70%29.59 "HgN/A
4:00 PM86 °FScattered clouds.1 mph70%29.59 "HgN/A
3:00 PM84 °FScattered clouds.3 mph74%29.62 "HgN/A
2:00 PM82 °FPassing clouds.6 mph79%29.65 "HgN/A
1:00 PM81 °FScattered clouds.8 mph79%29.65 "HgN/A
Weather by CustomWeather, © 2016

See weather overviewHow to use our weather pages